Flight Information

DEPARTURE
FARMINGTON, NM
Elevation:
5506
Runways:
5/23 - 6500x150 - ASPH-E
7/25 - 6704x100 - ASPH-G
ATIS:
127.15
Ground:
121.7
Tower:
FARMINGTON TOWER 118.9
DESTINATION
,
Elevation:
TPA:
1000 (est.)


6270.9 NM79° True-13° Var66° HDG

Flight Plan:
(click to file on line)

1. Type
2. Aircraft Identification
3. Aircraft Type / Special Equipment
4. True Airspeed
kts
5. Departure Airport
(ICAO code)
6. Arriving Airport
(ICAO code)
7. Cruising Altitude
ft
8. Alternate Airport
(ICAO code)
9. Route of Flight
10. Remarks


00:00:00 Departure ATIS: Destination ATIS:

Clearance Limit:
Route:
Altitude: Expect in minutes
Frequency:
Transponder: (7500 Hijack / 7600 Lost Comms / 7700 Emergency)


KFMN 101353Z 09008KT 10SM CLR 19/M03 A3027 RMK AO2 SLP179 T01891033
Time: 2020-07-10T13:53:00Z
1594392249
Winds: 90 @ 8 kts
Visibility: 10.0 sm
Clouds (AGL): CLR
Temperature: 18.9 C
Dew Point: -3.3 C
Pressure: 30.268702 in Hgbr


Notes:

Data extracted from FAA Digital Chart Supplement. Effective: 0901Z Thursday, May 21, 2020 to 0901Z Thursday, Jul 16, 2020
Current ATIS data is provided courtisy of PilotEdge.